Regional Weather Roundup
Issued by NWS

Home | Current Version | Previous Version | Text Only | Print | Product List | Glossary Off
Versions: 1 2 3 4 5 6 7 8 9 10 11 12 13 14 15 16 17 18 19 20 21 22 23 24 25 26 27 28 29 30 31 32 33 34 35 36 37 38 39 40 41 42 43 44 45 46 47 48 49 50

000
ASUS43 KIND 241909
RWRIN

WEATHER ROUNDUP FOR INDIANA
NATIONAL WEATHER SERVICE INDIANAPOLIS IN
300 PM EDT FRI OCT 24 2014

NOTE: "FAIR" INDICATES FEW OR NO CLOUDS BELOW 12,000 FEET WITH NO
SIGNIFICANT WEATHER AND/OR OBSTRUCTIONS TO VISIBILITY.

* - STATION DOES NOT REPORT WEATHER SUCH AS PRECIPITATION OR FOG.

+ - STATION NOT QUALITY CONTROLLED BY THE NATIONAL WEATHER SERVICE.
    USE DATA WITH CAUTION...ESPECIALLY DEWPOINT AND RELATIVE
    HUMIDITY OBSERVATIONS.

INZ001>003-010>013-019-020-242000-
NORTHWEST INDIANA

CITY           SKY/WX    TMP DP  RH WIND       PRES   REMARKS
GARY /AIRPORT/ PTSUNNY   66  50  55 SW8       30.01F
KNOX *+        MOSUNNY   65  49  57 SW7       30.00F
LA PORTE +     MOSUNNY   65  51  59 SW12G17   30.01F
MICHIGAN CITY+ MOSUNNY   61  46  59 NW7       30.00F
MONTICELLO +   PTSUNNY   64  53  67 W6        30.01F
RENSSELAER +   MOSUNNY   64  52  63 SW10G16   30.01F
VALPARAISO     MOSUNNY   63  49  60 SW9       30.00F

$$

LMZ046-743>745-242000-
SOUTHERN LAKE MICHIGAN

STATION/POSITION TIME  TEMP WIND        PRES
                       AIR  DIR/SP/G
                 (UTC) (F)  (DEG/KT/KT) (MB)
MICHIGAN CITY    1900   58  330/  4/  5   N/A

$$

INZ004-005-014>016-021>024-242000-
NORTH CENTRAL INDIANA

CITY           SKY/WX    TMP DP  RH WIND       PRES   REMARKS
ELKHART        CLOUDY    64  50  59 SW7       30.01F
GOSHEN         MOSUNNY   63  50  62 SW10      30.00F
LOGANSPORT +   MOSUNNY   64  50  59 SW8       30.02F
PERU/GRISSOM   SUNNY     65  56  74 SW8       30.02F
ROCHESTER +    CLOUDY    66  54  63 SW7       30.01F
SOUTH BEND     PTSUNNY   64  50  60 VRB7      30.01F
WARSAW +       MOSUNNY   63  50  63 SW3       30.01F

$$

INZ006>009-017-018-025>027-242000-
NORTHEAST INDIANA

CITY           SKY/WX    TMP DP  RH WIND       PRES   REMARKS
ANGOLA *+      SUNNY     61  48  63 S8        30.00F
AUBURN +       CLOUDY    59  46  63 SW6       30.03F
FORT WAYNE     PTSUNNY   61  49  64 VRB5      30.03F
HUNTINGTON +   MOSUNNY   62  51  68 W3        30.02F

$$

INZ028-029-035-036-043>045-051>053-242000-
WEST CENTRAL INDIANA

CITY           SKY/WX    TMP DP  RH WIND       PRES   REMARKS
GREENCASTLE +  SUNNY     63  52  67 W5        30.06S
LAFAYETTE      MOSUNNY   63  53  70 W8        30.02F
TERRE HAUTE    MOSUNNY   67  52  58 VRB3      30.05F HAZE

$$

INZ030>032-037>040-046>048-054>057-064-065-242000-
CENTRAL INDIANA

CITY           SKY/WX    TMP DP  RH WIND       PRES   REMARKS
ANDERSON       MOSUNNY   63  43  48 W12       30.06
CP ATTERBURY + SUNNY     64  46  52 SW5       30.06F
FRANKFORT +    SUNNY     66  52  61 S5        30.05F HAZE
INDIANAPOLIS   MOSUNNY   63  49  60 W6        30.04F
-EAGLE CREEK   SUNNY     64  49  57 W5        30.04F
KOKOMO *+      MOSUNNY   64  52  63 SW6       30.03F
MARION +       SUNNY     63  47  57 W7        30.04F
MT COMFORT *+  PTSUNNY   61  43  51 W8        30.06F
SHELBYVILLE    PTSUNNY   65  45  48 SW7       30.05F
ZIONSVILLE +   SUNNY     64  48  57 SW6       30.05F

$$

INZ033-034-041-042-049-050-058-059-242000-
EAST CENTRAL INDIANA

CITY           SKY/WX    TMP DP  RH WIND       PRES   REMARKS
MUNCIE         CLOUDY    62  44  51 W8        30.04F

$$

INZ060-061-067>069-081>083-085>088-242000-
SOUTHWEST INDIANA

CITY           SKY/WX    TMP DP  RH WIND       PRES   REMARKS
EVANSVILLE     SUNNY     68  49  50 S6        30.07F
HUNTINGBURG *+ SUNNY     66  48  52 W6        30.07F
WASHINGTON +   SUNNY     67  50  56 SW5       30.05F

$$

INZ062-063-066-070>080-084-089>092-242000-
SOUTH CENTRAL AND SOUTHEAST INDIANA

CITY           SKY/WX    TMP DP  RH WIND       PRES   REMARKS
BLOOMINGTON    SUNNY     65  49  56 S5        30.05F
SEYMOUR +      PTSUNNY   64  45  48 SW3       30.06F

$$




USA.gov is the U.S. government's official web portal to all federal, state and local government web resources and services.